Regional Weather Roundup
Issued by NWS

Home | Current Version | Previous Version | Graphics & Text | Print | Product List | Glossary On
Versions: 1 2 3 4 5 6 7 8 9 10 11 12 13 14 15 16 17 18 19 20 21 22 23 24 25 26 27 28 29 30 31 32 33 34 35 36 37 38 39 40 41 42 43 44 45 46 47 48 49 50
199
ASUS43 KMKX 220317
RWRWI

WISCONSIN REGIONAL WEATHER ROUNDUP
NATIONAL WEATHER SERVICE MILWAUKEE/SULLIVAN WI
1000 PM CDT THU MAY 21 2015

NOTE: "FAIR" INDICATES FEW OR NO CLOUDS BELOW 12,000 FEET WITH NO
SIGNIFICANT WEATHER AND/OR OBSTRUCTIONS TO VISIBILITY.

WIZ001-002-006>008-014>016-023>028-220400-
NORTHWEST WISCONSIN

CITY           SKY/WX    TMP DP  RH WIND       PRES   REMARKS
SUPERIOR ARPT  CLEAR     58  29  32 N5        30.05R
ASHLAND        CLEAR     46  37  71 NE3       30.06R
HAYWARD        CLEAR     50  36  58 CALM      30.05R
SIREN          CLEAR     57  32  38 CALM      30.05R
CUMBERLAND     CLEAR     55  30  38 NW5       30.05R
RICE LAKE      CLEAR     58  32  38 CALM      30.05R
CHETEK         CLEAR     54  36  51 N5        30.04R
LADYSMITH      CLEAR     51  39  62 CALM      30.05R
EAU CLAIRE     CLEAR     54  42  64 NW5       30.03R
MENOMONIE      CLEAR     62  30  30 W6        30.03R
NEW RICHMOND   CLEAR     57  33  39 NW6       30.06R
OSCEOLA        CLEAR     60  33  37 NW3       30.09R
$$

WIZ003>005-009-010-017-018-220400-
NORTH CENTRAL WISCONSIN

CITY           SKY/WX    TMP DP  RH WIND       PRES   REMARKS
MANITOWISH WTR CLEAR     45  33  62 CALM      30.04R
ARBOR VITAE    CLEAR     51  35  52 CALM      30.04R
WOODRUFF       CLEAR     51  35  52 CALM      30.04R
RHINELANDER    CLEAR     43  30  60 CALM      30.04R
EAGLE RIVER    CLEAR     43  30  61 CALM      30.03R
LAND O LAKES   CLEAR     41  32  70 CALM      30.04R
PHILLIPS       CLEAR     46  36  69 CALM      30.03R
TOMAHAWK       CLEAR     44  33  66 CALM      30.04R
MEDFORD        CLEAR     48  35  60 CALM      30.03R
MERRILL        CLEAR     48  32  53 CALM      30.04R
$$

WIZ029-030-035-036-043>047-220400-
CENTRAL WISCONSIN

CITY           SKY/WX    TMP DP  RH WIND       PRES   REMARKS
WAUSAU         CLEAR     53  30  41 CALM      30.02R
MOSINEE        CLEAR     55  27  33 NE3       30.04R
MARSHFIELD     CLEAR     57  29  34 NE5       30.03R
STEVENS POINT  CLEAR     55  28  36 N6        30.03R
WAUPACA        PTCLDY    57  42  57 NE7       30.03R
WAUTOMA        NOT AVBL
WISC RAPIDS    CLEAR     57  28  33 NE6       30.04R
CAMP DOUGLAS   NOT AVBL
$$

WIZ011>013-019>022-031-037>040-048>050-220400-
NORTHEAST WISCONSIN

CITY           SKY/WX    TMP DP  RH WIND       PRES   REMARKS
ANTIGO         CLEAR     49  32  51 CALM      30.04R
SHAWANO        CLEAR     53  35  50 E6        30.05R
OCONTO         CLEAR     44  38  80 CALM      30.04R
STURGEON BAY   CLEAR     46  27  46 E5        30.06R
GREEN BAY      CLEAR     50  33  52 E8        30.05R
MANITOWOC      NOT AVBL
APPLETON       PTCLDY    52  32  46 E8        30.04R
CLINTONVILLE   CLEAR     52  37  58 CALM      30.04R
OSHKOSH        PTCLDY    53  36  52 E12       30.03R
$$

WIZ032>034-041-042-053>061-220400-
SOUTHWEST WISCONSIN

CITY           SKY/WX    TMP DP  RH WIND       PRES   REMARKS
LA CROSSE      CLEAR     59  44  57 N5        30.03R
SPARTA         CLEAR     52  41  65 CALM      30.03R
VIROQUA        CLEAR     60  38  44 W6        30.03R
BOSCOBEL       CLEAR     56  39  53 CALM      30.02R
PRAIRIE DU CHI CLEAR     57  38  49 CALM      30.02R
PLATTEVILLE    CLEAR     60  36  40 W6        30.02R
$$

WIZ056-057-062-063-064-067-068-220400-
SOUTH CENTRAL WISCONSIN

CITY           SKY/WX    TMP DP  RH WIND       PRES   REMARKS
REEDSBURG      CLEAR     60  38  45 W3        29.99R
BARABOO/DELLS  CLEAR     60  35  38 W5        29.99R
LONE ROCK      NOT AVBL
MINERAL POINT  CLEAR     61  32  33 W5        30.01R
MADISON        PTCLDY    64  42  44 VRB5      29.99R
MIDDLETON      PTCLDY    60  41  50 W8        30.00R
WATERTOWN      RAIN      61  47  59 N5        29.98R
MONROE         CLEAR     59  45  58 SW12      30.00R
JANESVILLE     CLEAR     59  43  55 SW7       29.99R
$$

WIZ051-052-058>065-066-070>072-220400-
SOUTHEAST WISCONSIN

CITY           SKY/WX    TMP DP  RH WIND       PRES   REMARKS
MILWAUKEE      LGT RAIN  55  42  61 NE13      30.00R
WAUKESHA       CLOUDY    61  39  44 W9G18     30.00R
MILWAUKEE/TIMM LGT RAIN  57  46  67 NE8       29.99R
RACINE         CLOUDY    63  40  42 W5        30.00R
BURLINGTON     CLEAR     57  41  54 SW8       29.99R
KENOSHA        CLEAR     60  42  51 SW10      29.99R
FOND DU LAC    PTCLDY    52  37  56 E10       30.03R
SHEBOYGAN      PTCLDY    47  34  60 NE16      30.03R
WEST BEND      LGT RAIN  52  37  58 E12       30.00R
JUNEAU         CLOUDY    59  46  63 CALM      29.98R
$$

LSZ147-162-220400-
LAKE SUPERIOR

STATION/POSITION TIME  TEMP    WIND        PRES    WAVE
                       AIR SEA DIR/SP/G            HT/PER
                 (UTC) (F)     (DEG/KT/KT) (MB)    (FT/S)
W MID LAKE BUOY  0150   42 36  240/  4/  4   N/A     0
DEVILS ISLAND    0200   54      20/  2/  3   N/A
PORT WING        0200   53      CALM  /  2   N/A
SAXON HARBOR     0200   50        CALM       N/A
$$

LMZ867-665-643>646-220400-
LAKE MICHIGAN

STATION/POSITION TIME  TEMP    WIND        PRES    WAVE
                       AIR SEA DIR/SP/G            HT/PER
                 (UTC) (F)     (DEG/KT/KT) (MB)    (FT/S)
CHAMBERS ISLAND  0200   52      70/  7/ 10   N/A
N MID LAKE BUOY  0150   43 36   CALM  /  2   N/A     2/ 4
SISTER BAY       0247   47     120/  4/  7   N/A
KEWAUNEE LAKESHO 0200           40/  6/ 10   N/A
SHEBOYGAN LAKESH 0200           10/ 18/ 20   N/A
PORT WASHINGTON  0200   58      20/ 10/ 20   N/A
ATWATER BUOY     0200   53 44   20/ 17/ 21   N/A
MILWAUKEE LAKESH 0200   67     350/ 13/ 16   N/A
S MID LAKE BUOY  0150   45 38  200/ 14/ 16   N/A     2/ 4
KENOSHA   LAKESH 0200   65     230/  7/ 14   N/A
$$

TC  - TEMPERATURE IN CELSIUS
VSB - VISIBILITY IN STATUTE MILES
WCI - WIND CHILL INDEX
HX  - HEAT INDEX




USA.gov is the U.S. government's official web portal to all federal, state and local government web resources and services.